Regional Weather Roundup
Issued by NWS

Home | Current Version | Previous Version | Text Only | Print | Product List | Glossary Off
Versions: 1 2 3 4 5 6 7 8 9 10 11 12 13 14 15 16 17 18 19 20 21 22 23 24 25 26 27 28 29 30 31 32 33 34 35 36 37 38 39 40 41 42 43 44 45 46 47 48 49 50

000
ASUS45 KSLC 120510
RWRUT

UTAH REGIONAL WEATHER ROUNDUP
NATIONAL WEATHER SERVICE SALT LAKE CITY UT
1100 PM MDT FRI JUL 11 2014

UTZ001>011-023>025-120600-

NORTHERN UTAH

CITY           SKY/WX    TMP DP  RH WIND       PRES   REMARKS
HILL AFB       CLEAR     73  56  55 E7        30.12S
LOGAN          CLEAR     70  56  61 S8        30.12R
OGDEN          CLEAR     72  56  57 S5        30.09S
PROVO AIRPORT  CLEAR     73  61  64 CALM      30.12S
SALT LAKE CITY CLEAR     77  58  51 CALM      30.07R
VERNAL         MOCLDY    75  53  46 NE12      30.16R
WENDOVER       PTCLDY    79  46  31 N18       30.09S
HEBER CITY     CLEAR     64  55  72 CALM      30.20R

$$

UTZ012>022-026-027-120600-

SOUTHERN UTAH

CITY           SKY/WX    TMP DP  RH WIND       PRES   REMARKS
BRYCE CANYON   CLEAR     57  49  74 W9        30.35R
CEDAR CITY     CLEAR     72  43  35 SE7       30.20R
MILFORD        CLOUDY    77  53  43 S6        30.12R
MOAB/CYNLANDS  CLEAR     83  47  28 W10       30.03R
PRICE          CLEAR     69  54  58 N5        30.19R
ST GEORGE      CLEAR     88  45  22 S7        29.99R

$$

REGIONAL REPORTS     COLORADO/ARIZONA

CITY           SKY/WX    TMP DP  RH WIND       PRES   REMARKS
CRAIG, CO      LGT RAIN  56  56 100 SE10      30.26R
GRAND JUNCTION MOCLDY    76  53  44 SE13      30.08S
RIFLE          CLOUDY    66  59  78 E14       30.20R
MONTROSE       MOCLDY    74  51  44 E5        30.22R
CORTEZ         CLOUDY    75  52  44 SE16G25   30.22R
PAGE, AZ       CLEAR     88  39  17 W5        30.07R
GRAND CANYON   CLEAR     59  52  77 CALM      30.28R
KINGMAN        PTCLDY    81  37  20 S12       30.04R
FLAGSTAFF      CLOUDY    65  51  60 CALM      30.33R

$$

REGIONAL REPORTS    NEVADA/IDAHO/WYOMING

CITY           SKY/WX    TMP DP  RH WIND       PRES   REMARKS
LAS VEGAS, NV  PTCLDY    93  31  11 S12       29.88R
ELY            PTCLDY    69  50  50 N7        30.23R
ELKO           RAIN      67  57  70 SW9       30.20R
POCATELLO, ID  CLEAR     70  52  52 E7        30.11R
BURLEY         MOCLDY    70  49  47 S8        30.06R
EVANSTON, WY   PTCLDY    62  55  77 E7        30.31S
ROCK SPRINGS   MOCLDY    58  50  75 NE15      30.31R

$$


USA.gov is the U.S. government's official web portal to all federal, state and local government web resources and services.